Tracking 20724 objects as of 2-Jun-2020
HD Live streaming from Space Station
objects crossing your sky now

COSMOS 1867 COOLANT

Track COSMOS 1867 COOLANT now!
10-day predictions


NORAD ID: 39656
Int'l Code: 1987-060T
Perigee: 783.3 km
Apogee: 802.5 km
Inclination: 65.0 °
Period: 100.6 minutes
Semi major axis: 7163 km
RCS: Unknown
Launch date: July 10, 1987
Source: Commonwealth of Independent States (former USSR) (CIS)
Launch site: TYURATAM MISSILE AND SPACE COMPLEX (TTMTR)

Note: This is SATELLITE DEBRIS
aabbcc
Your satellite tracking list
Your tracking list is empty




NASA's NSSDC Master Catalog

Two Line Element Set (TLE):
1 39656U 87060T   20153.87858345 -.00000053 +00000-0 +17717-4 0  9995
2 39656 065.0086 078.6804 0013445 270.9663 088.9881 14.31790778320632
Source of the keplerian elements: AFSPC